Location: Kumla
(59.1265°N, 15.1401°E)
Time: 17:07:44
(UTC+01:00)

Transit 2A - Pass Details

Date: 09 December 2023
Orbit: 600 x 953 km, 66.7° (Epoch: 21 February)

Event Time Altitude Azimuth Distance (km) Brightness Sun altitude
Rises 17:06:26 0° 255° (WSW) 3,044 11.1 -13.9°
Reaches altitude 10° 17:08:55 10° 261° (W) 2,081 9.6 -14.2°
Maximum altitude 17:13:23 45° 335° (NNW) 865 6.3 -14.7°
Enters shadow 17:16:02 21° 39° (NE) 1,396 6.9 -15.1°
Drops below altitude 10° 17:17:38 10° 49° (NE) 1,971 - -15.2°
Sets 17:19:56 0° 56° (NE) 2,864 - -15.5°
